| time (UTC) | temp F | wind direction | speed MPH | gust MPH | rain 1hr in | rain 24hr in | rain mn in | humidity % | barometer mb |
| 20260506190856 | 47 | 316 | 5.0 | 7.0 | 0.07 | 0.39 | 0.39 | 95 | 1008.3 |
| 20260506190353 | 48 | 217 | 3.0 | 5.0 | 0.00 | 0.38 | 0.38 | 95 | 1008.1 |
| 20260506185849 | 48 | 226 | 3.0 | 3.0 | 0.00 | 0.38 | 0.38 | 95 | 1008.0 |
| 20260506185347 | 48 | 148 | 1.0 | 1.0 | 0.00 | 0.38 | 0.38 | 95 | 1007.9 |
| 20260506184843 | 48 | 340 | 3.0 | 3.0 | 0.00 | 0.38 | 0.38 | 95 | 1008.0 |
| 20260506184340 | 48 | 252 | 2.0 | 3.0 | 0.00 | 0.38 | 0.38 | 95 | 1008.0 |
| 20260506183838 | 47 | 297 | 3.0 | 3.0 | 0.00 | 0.38 | 0.38 | 95 | 1007.9 |
| 20260506183333 | 47 | 257 | 7.0 | 8.0 | 0.00 | 0.38 | 0.38 | 95 | 1007.8 |
| 20260506182831 | 47 | 245 | 4.0 | 6.0 | 0.00 | 0.38 | 0.38 | 95 | 1007.9 |
| 20260506182327 | 47 | 217 | 2.0 | 3.0 | 0.00 | 0.38 | 0.38 | 95 | 1007.7 |
| 20260506181825 | 47 | 207 | 1.0 | 2.0 | 0.00 | 0.38 | 0.38 | 95 | 1007.8 |
| 20260506181323 | 47 | 151 | 1.0 | 2.0 | 0.00 | 0.38 | 0.38 | 95 | 1007.7 |
| 20260506180820 | 47 | 278 | 3.0 | 3.0 | 0.00 | 0.38 | 0.38 | 95 | 1007.7 |
| 20260506180316 | 47 | 304 | 3.0 | 5.0 | 0.00 | 0.38 | 0.38 | 95 | 1007.8 |
| 20260506175812 | 48 | 282 | 2.0 | 2.0 | 0.00 | 0.38 | 0.38 | 95 | 1007.7 |
| 20260506175309 | 48 | 215 | 1.0 | 1.0 | 0.00 | 0.38 | 0.38 | 95 | 1007.6 |
| 20260506174807 | 48 | 277 | 3.0 | 5.0 | 0.00 | 0.38 | 0.38 | 95 | 1007.5 |
| 20260506174304 | 48 | 103 | 1.0 | 1.0 | 0.00 | 0.38 | 0.38 | 95 | 1007.3 |
| 20260506173801 | 48 | 257 | 3.0 | 3.0 | 0.00 | 0.38 | 0.38 | 95 | 1007.5 |
| 20260506173258 | 48 | 222 | 2.0 | 2.0 | 0.00 | 0.38 | 0.38 | 95 | 1007.2 |
| 20260506172754 | 48 | 277 | 3.0 | 3.0 | 0.00 | 0.38 | 0.38 | 95 | 1007.4 |
| 20260506172251 | 48 | 169 | 0.0 | 1.0 | 0.05 | 0.38 | 0.38 | 95 | 1007.3 |
| 20260506171749 | 48 | 261 | 3.0 | 3.0 | 0.05 | 0.38 | 0.38 | 95 | 1007.2 |
| 20260506171246 | 48 | 235 | 2.0 | 3.0 | 0.00 | 0.37 | 0.37 | 95 | 1007.0 |
| 20260506170744 | 49 | 290 | 3.0 | 3.0 | 0.00 | 0.37 | 0.37 | 95 | 1007.2 |
| 20260506170240 | 48 | 166 | 0.0 | 0.0 | 0.00 | 0.37 | 0.37 | 95 | 1007.4 |
| 20260506165738 | 49 | 331 | 6.0 | 8.0 | 0.00 | 0.37 | 0.37 | 95 | 1007.1 |
| 20260506165235 | 49 | 344 | 3.0 | 3.0 | 0.00 | 0.37 | 0.37 | 95 | 1007.1 |
| 20260506164732 | 49 | 4 | 3.0 | 5.0 | 0.00 | 0.37 | 0.37 | 95 | 1007.1 |
| 20260506164229 | 50 | 337 | 5.0 | 6.0 | 0.00 | 0.37 | 0.37 | 95 | 1006.8 |
| 20260506163726 | 50 | 311 | 2.0 | 2.0 | 0.00 | 0.37 | 0.37 | 95 | 1006.9 |
| 20260506163220 | 50 | 342 | 2.0 | 2.0 | 0.00 | 0.37 | 0.37 | 95 | 1007.0 |
| 20260506162717 | 51 | 324 | 5.0 | 6.0 | 0.00 | 0.37 | 0.37 | 95 | 1007.1 |
| 20260506162214 | 52 | 210 | 2.0 | 3.0 | 0.00 | 0.37 | 0.37 | 95 | 1006.9 |
| 20260506161706 | 53 | 341 | 3.0 | 5.0 | 0.00 | 0.37 | 0.37 | 95 | 1006.6 |
| 20260506161203 | 55 | 273 | 4.0 | 6.0 | 0.00 | 0.37 | 0.37 | 95 | 1006.7 |
| 20260506160700 | 56 | 170 | 0.0 | 1.0 | 0.00 | 0.37 | 0.37 | 95 | 1006.4 |
| 20260506160157 | 56 | 172 | 0.0 | 0.0 | 0.00 | 0.37 | 0.37 | 95 | 1006.6 |
| 20260506155655 | 56 | 197 | 1.0 | 2.0 | 0.00 | 0.37 | 0.37 | 95 | 1006.7 |
| 20260506155152 | 57 | 152 | 0.0 | 0.0 | 0.00 | 0.37 | 0.37 | 95 | 1006.4 |
| 20260506153254 | 56 | 179 | 1.0 | 1.0 | 0.00 | 0.36 | 0.36 | 95 | 1006.8 |
| 20260506152751 | 56 | 156 | 0.0 | 0.0 | 0.00 | 0.36 | 0.36 | 95 | 1006.8 |
| 20260506152249 | 56 | 146 | 3.0 | 3.0 | 0.00 | 0.36 | 0.36 | 95 | 1006.8 |
| 20260506151747 | 56 | 123 | 2.0 | 2.0 | 0.00 | 0.36 | 0.36 | 95 | 1006.8 |
| 20260506151244 | 56 | 121 | 1.0 | 1.0 | 0.07 | 0.36 | 0.36 | 95 | 1007.0 |
| 20260506150740 | 56 | 143 | 1.0 | 2.0 | 0.07 | 0.36 | 0.36 | 95 | 1006.7 |
| 20260506150238 | 56 | 126 | 3.0 | 3.0 | 0.00 | 0.35 | 0.35 | 95 | 1006.8 |
| 20260506145734 | 56 | 120 | 2.0 | 3.0 | 0.00 | 0.35 | 0.35 | 95 | 1006.8 |
| 20260506145230 | 56 | 164 | 4.0 | 5.0 | 0.00 | 0.35 | 0.35 | 95 | 1006.6 |
| 20260506144728 | 56 | 122 | 3.0 | 3.0 | 0.00 | 0.35 | 0.35 | 95 | 1006.6 |
| 20260506144225 | 56 | 122 | 3.0 | 3.0 | 0.00 | 0.35 | 0.35 | 95 | 1006.4 |
| 20260506143722 | 56 | 139 | 1.0 | 1.0 | 0.00 | 0.35 | 0.35 | 95 | 1006.4 |
| 20260506143220 | 56 | 123 | 3.0 | 5.0 | 0.00 | 0.35 | 0.35 | 95 | 1006.7 |
| 20260506142719 | 56 | 127 | 0.0 | 1.0 | 0.00 | 0.35 | 0.35 | 95 | 1006.6 |
| 20260506142216 | 55 | 120 | 5.0 | 6.0 | 0.05 | 0.35 | 0.35 | 95 | 1006.6 |
| 20260506141714 | 56 | 102 | 3.0 | 3.0 | 0.05 | 0.35 | 0.35 | 95 | 1006.7 |
| 20260506141212 | 55 | 133 | 3.0 | 5.0 | 0.00 | 0.34 | 0.34 | 95 | 1006.8 |
| 20260506140709 | 55 | 120 | 3.0 | 3.0 | 0.00 | 0.34 | 0.34 | 95 | 1006.4 |
| 20260506140206 | 55 | 119 | 1.0 | 2.0 | 0.07 | 0.34 | 0.34 | 95 | 1006.8 |
| 20260506135703 | 55 | 129 | 2.0 | 2.0 | 0.07 | 0.34 | 0.34 | 95 | 1007.0 |
| 20260506135159 | 55 | 143 | 2.0 | 2.0 | 0.00 | 0.33 | 0.33 | 95 | 1006.9 |
| 20260506134656 | 54 | 146 | 0.0 | 1.0 | 0.05 | 0.33 | 0.33 | 95 | 1007.0 |
| 20260506134152 | 54 | 120 | 3.0 | 3.0 | 0.12 | 0.33 | 0.33 | 95 | 1007.0 |
| 20260506133649 | 53 | 136 | 2.0 | 3.0 | 0.12 | 0.32 | 0.32 | 95 | 1007.1 |
| 20260506133146 | 53 | 147 | 3.0 | 3.0 | 0.12 | 0.31 | 0.31 | 95 | 1007.4 |
| 20260506132643 | 52 | 139 | 1.0 | 2.0 | 0.12 | 0.30 | 0.30 | 95 | 1007.2 |
| 20260506132140 | 52 | 111 | 2.0 | 2.0 | 0.17 | 0.29 | 0.29 | 95 | 1007.3 |
| 20260506131638 | 53 | 173 | 1.0 | 2.0 | 0.19 | 0.28 | 0.28 | 95 | 1007.2 |
| 20260506131134 | 53 | 132 | 2.0 | 3.0 | 0.12 | 0.26 | 0.26 | 95 | 1007.5 |
| 20260506130631 | 52 | 97 | 1.0 | 1.0 | 0.19 | 0.25 | 0.25 | 95 | 1007.6 |
| 20260506130128 | 51 | 133 | 1.0 | 3.0 | 0.26 | 0.24 | 0.24 | 95 | 1007.5 |
| 20260506125626 | 50 | 137 | 0.0 | 0.0 | 0.17 | 0.22 | 0.22 | 95 | 1007.8 |
| 20260506125124 | 50 | 159 | 0.0 | 0.0 | 0.17 | 0.20 | 0.20 | 95 | 1008.0 |
| 20260506124621 | 50 | 159 | 0.0 | 0.0 | 0.19 | 0.19 | 0.19 | 95 | 1007.5 |
| 20260506124119 | 50 | 163 | 1.0 | 1.0 | 0.12 | 0.17 | 0.17 | 95 | 1007.3 |
| 20260506123616 | 50 | 142 | 1.0 | 2.0 | 0.12 | 0.16 | 0.16 | 95 | 1007.4 |
| 20260506123115 | 50 | 161 | 0.0 | 0.0 | 0.12 | 0.15 | 0.15 | 95 | 1007.3 |
| 20260506122611 | 50 | 169 | 0.0 | 0.0 | 0.05 | 0.14 | 0.14 | 95 | 1007.4 |
| 20260506122109 | 50 | 162 | 0.0 | 0.0 | 0.00 | 0.13 | 0.13 | 95 | 1007.1 |
| 20260506121607 | 50 | 162 | 1.0 | 1.0 | 0.07 | 0.13 | 0.13 | 95 | 1006.9 |
| 20260506121103 | 49 | 150 | 1.0 | 1.0 | 0.07 | 0.13 | 0.13 | 95 | 1007.2 |
| 20260506120601 | 49 | 135 | 1.0 | 1.0 | 0.00 | 0.12 | 0.12 | 95 | 1007.2 |
| 20260506120058 | 49 | 135 | 2.0 | 2.0 | 0.00 | 0.12 | 0.12 | 95 | 1007.3 |
| 20260506115556 | 49 | 143 | 3.0 | 3.0 | 0.05 | 0.12 | 0.12 | 95 | 1007.4 |
| 20260506115054 | 49 | 118 | 3.0 | 3.0 | 0.05 | 0.12 | 0.12 | 95 | 1007.3 |
| 20260506114551 | 49 | 168 | 1.0 | 1.0 | 0.07 | 0.11 | 0.11 | 94 | 1007.7 |
| 20260506114049 | 49 | 149 | 1.0 | 1.0 | 0.14 | 0.11 | 0.11 | 94 | 1007.7 |
| 20260506113547 | 49 | 173 | 0.0 | 0.0 | 0.19 | 0.10 | 0.10 | 94 | 1007.9 |
| 20260506113044 | 49 | 146 | 0.0 | 0.0 | 0.12 | 0.08 | 0.08 | 94 | 1007.7 |
| 20260506112540 | 49 | 147 | 0.0 | 0.0 | 0.12 | 0.07 | 0.07 | 94 | 1007.9 |
| 20260506112038 | 49 | 147 | 0.0 | 0.0 | 0.07 | 0.06 | 0.06 | 94 | 1008.1 |
| 20260506111536 | 49 | 147 | 0.0 | 0.0 | 0.00 | 0.05 | 0.05 | 94 | 1008.0 |
| 20260506111033 | 49 | 147 | 0.0 | 0.0 | 0.00 | 0.05 | 0.05 | 94 | 1008.1 |
| 20260506110530 | 49 | 147 | 0.0 | 0.0 | 0.00 | 0.05 | 0.05 | 94 | 1008.1 |
| 20260506110027 | 49 | 146 | 0.0 | 0.0 | 0.05 | 0.05 | 0.05 | 94 | 1008.1 |
| 20260506105523 | 49 | 145 | 0.0 | 0.0 | 0.05 | 0.05 | 0.05 | 94 | 1008.3 |
| 20260506105021 | 49 | 144 | 0.0 | 0.0 | 0.00 | 0.04 | 0.04 | 94 | 1008.0 |
| 20260506104519 | 49 | 160 | 0.0 | 0.0 | 0.00 | 0.04 | 0.04 | 94 | 1007.8 |
| 20260506104016 | 49 | 171 | 0.0 | 0.0 | 0.07 | 0.04 | 0.04 | 94 | 1007.9 |
| 20260506103513 | 49 | 177 | 0.0 | 0.0 | 0.07 | 0.04 | 0.04 | 93 | 1008.1 |
| 20260506103010 | 49 | 178 | 0.0 | 0.0 | 0.00 | 0.03 | 0.03 | 93 | 1007.9 |
| 20260506102509 | 49 | 187 | 1.0 | 1.0 | 0.00 | 0.03 | 0.03 | 93 | 1008.0 |
| 20260506102005 | 49 | 173 | 0.0 | 0.0 | 0.00 | 0.03 | 0.03 | 93 | 1007.9 |
| 20260506101502 | 49 | 197 | 1.0 | 1.0 | 0.00 | 0.03 | 0.03 | 93 | 1007.5 |
| 20260506100959 | 49 | 96 | 1.0 | 2.0 | 0.05 | 0.03 | 0.03 | 93 | 1007.5 |
| 20260506100457 | 49 | 209 | 1.0 | 2.0 | 0.05 | 0.03 | 0.03 | 93 | 1007.7 |
| 20260506095955 | 49 | 338 | 3.0 | 3.0 | 0.00 | 0.02 | 0.02 | 93 | 1007.7 |
| 20260506095454 | 49 | 134 | 0.0 | 1.0 | 0.00 | 0.02 | 0.02 | 93 | 1007.7 |
| 20260506094949 | 49 | 183 | 0.0 | 1.0 | 0.00 | 0.02 | 0.02 | 93 | 1007.6 |
| 20260506094448 | 49 | 152 | 1.0 | 1.0 | 0.00 | 0.02 | 0.02 | 93 | 1007.5 |
| 20260506093945 | 49 | 195 | 1.0 | 1.0 | 0.00 | 0.02 | 0.02 | 93 | 1007.7 |
| 20260506093443 | 49 | 187 | 0.0 | 0.0 | 0.07 | 0.02 | 0.02 | 93 | 1007.7 |
| 20260506092940 | 49 | 184 | 1.0 | 1.0 | 0.07 | 0.02 | 0.02 | 93 | 1007.3 |
| 20260506092438 | 49 | 170 | 0.0 | 0.0 | 0.00 | 0.01 | 0.01 | 92 | 1007.5 |
| 20260506091934 | 49 | 173 | 0.0 | 1.0 | 0.00 | 0.01 | 0.01 | 92 | 1007.6 |
| 20260506091433 | 49 | 138 | 1.0 | 2.0 | 0.05 | 0.01 | 0.01 | 92 | 1007.6 |
| 20260506090930 | 49 | 150 | 0.0 | 0.0 | 0.05 | 0.01 | 0.01 | 92 | 1007.7 |
| 20260506090427 | 49 | 150 | 0.0 | 0.0 | 0.00 | 0.00 | 0.00 | 92 | 1008.0 |
| 20260506085923 | 49 | 156 | 0.0 | 0.0 | 0.00 | 0.00 | 0.00 | 92 | 1007.8 |
| 20260506085420 | 49 | 166 | 1.0 | 1.0 | 0.00 | 0.00 | 0.00 | 92 | 1007.9 |
| 20260506084911 | 49 | 116 | 1.0 | 1.0 | 0.00 | 0.00 | 0.00 | 92 | 1008.2 |
| 20260506084408 | 49 | 165 | 0.0 | 0.0 | 0.00 | 0.00 | 0.00 | 92 | 1008.1 |
| 20260506083904 | 49 | 179 | 1.0 | 2.0 | 0.00 | 0.00 | 0.00 | 92 | 1007.8 |
| 20260506083402 | 49 | 172 | 0.0 | 0.0 | 0.00 | 0.00 | 0.00 | 91 | 1007.8 |
| 20260506082859 | 49 | 164 | 0.0 | 0.0 | 0.00 | 0.00 | 0.00 | 91 | 1008.0 |
| 20260506082355 | 49 | 171 | 0.0 | 0.0 | 0.00 | 0.00 | 0.00 | 91 | 1008.0 |
| 20260506081851 | 49 | 150 | 1.0 | 1.0 | 0.00 | 0.00 | 0.00 | 91 | 1008.2 |
| 20260506081350 | 49 | 160 | 0.0 | 0.0 | 0.00 | 0.00 | 0.00 | 91 | 1007.9 |
| 20260506080847 | 49 | 161 | 0.0 | 1.0 | 0.00 | 0.00 | 0.00 | 91 | 1007.7 |
| 20260506080344 | 49 | 163 | 0.0 | 1.0 | 0.00 | 0.00 | 0.00 | 91 | 1007.9 |
| 20260506073322 | 49 | 148 | 0.0 | 1.0 | 0.00 | 0.00 | 0.00 | 91 | 1008.2 |
| 20260506072819 | 49 | 148 | 0.0 | 1.0 | 0.00 | 0.00 | 0.00 | 91 | 1008.2 |
| 20260506072316 | 50 | 128 | 1.0 | 1.0 | 0.00 | 0.00 | 0.00 | 91 | 1008.0 |
| 20260506071814 | 50 | 152 | 0.0 | 1.0 | 0.00 | 0.00 | 0.00 | 91 | 1008.3 |
| 20260506071312 | 50 | 140 | 1.0 | 1.0 | 0.00 | 0.00 | 0.00 | 91 | 1008.3 |
| 20260506070808 | 49 | 174 | 1.0 | 1.0 | 0.00 | 0.00 | 0.00 | 91 | 1008.2 |
| 20260506070305 | 49 | 134 | 1.0 | 1.0 | 0.00 | 0.00 | 0.00 | 91 | 1008.2 |
| 20260506062243 | 49 | 157 | 0.0 | 0.0 | 0.00 | 0.00 | 0.00 | 90 | 1008.9 |
| 20260506061738 | 50 | 154 | 0.0 | 0.0 | 0.00 | 0.00 | 0.00 | 90 | 1008.8 |
| 20260506061235 | 50 | 155 | 0.0 | 0.0 | 0.00 | 0.00 | 0.00 | 90 | 1008.9 |
| 20260506060734 | 50 | 148 | 1.0 | 1.0 | 0.00 | 0.00 | 0.00 | 90 | 1008.9 |
| 20260506060230 | 50 | 155 | 0.0 | 0.0 | 0.00 | 0.00 | 0.00 | 90 | 1009.0 |
| 20260506051157 | 50 | 134 | 0.0 | 0.0 | 0.00 | 0.00 | 0.00 | 89 | 1009.4 |
| 20260506050655 | 50 | 107 | 2.0 | 2.0 | 0.00 | 0.00 | 0.00 | 88 | 1009.8 |
| 20260506050152 | 50 | 144 | 1.0 | 1.0 | 0.00 | 0.00 | 0.00 | 88 | 1010.1 |
| 20260506044643 | 50 | 107 | 2.0 | 2.0 | 0.00 | 0.00 | 0.00 | 88 | 1010.0 |
| 20260506044140 | 50 | 100 | 2.0 | 2.0 | 0.00 | 0.00 | 0.00 | 88 | 1010.3 |
| 20260506043637 | 49 | 34 | 3.0 | 3.0 | 0.00 | 0.00 | 0.00 | 88 | 1010.1 |
| 20260506043135 | 50 | 90 | 3.0 | 3.0 | 0.00 | 0.00 | 0.00 | 88 | 1010.0 |
| 20260506042634 | 50 | 107 | 2.0 | 2.0 | 0.00 | 0.00 | 0.00 | 87 | 1009.6 |
| 20260506042132 | 50 | 23 | 3.0 | 3.0 | 0.00 | 0.00 | 0.00 | 87 | 1009.8 |
| 20260506041630 | 50 | 91 | 3.0 | 3.0 | 0.00 | 0.00 | 0.00 | 87 | 1009.8 |
| 20260506041126 | 50 | 117 | 2.0 | 2.0 | 0.00 | 0.00 | 0.00 | 87 | 1009.8 |
| 20260506040624 | 51 | 92 | 2.0 | 2.0 | 0.00 | 0.00 | 0.00 | 87 | 1010.1 |
| 20260506040120 | 51 | 145 | 0.0 | 0.0 | 0.00 | 0.00 | 0.00 | 87 | 1010.1 |
| 20260506035617 | 51 | 139 | 0.0 | 0.0 | 0.00 | 0.10 | 0.10 | 87 | 1009.8 |
| 20260506035114 | 51 | 105 | 2.0 | 2.0 | 0.00 | 0.10 | 0.10 | 87 | 1010.2 |
| 20260506034611 | 51 | 147 | 0.0 | 1.0 | 0.00 | 0.10 | 0.10 | 86 | 1010.5 |
| 20260506034108 | 51 | 100 | 2.0 | 2.0 | 0.00 | 0.10 | 0.10 | 87 | 1010.3 |
| 20260506033605 | 51 | 131 | 1.0 | 1.0 | 0.00 | 0.10 | 0.10 | 86 | 1010.4 |
| 20260506033102 | 51 | 144 | 0.0 | 1.0 | 0.00 | 0.10 | 0.10 | 86 | 1010.5 |
| 20260506032600 | 51 | 132 | 1.0 | 1.0 | 0.00 | 0.10 | 0.10 | 86 | 1010.4 |
| 20260506032056 | 51 | 143 | 1.0 | 1.0 | 0.00 | 0.10 | 0.10 | 85 | 1010.2 |
| 20260506031554 | 52 | 153 | 0.0 | 0.0 | 0.00 | 0.10 | 0.10 | 85 | 1010.1 |
| 20260506031050 | 53 | 199 | 1.0 | 1.0 | 0.00 | 0.10 | 0.10 | 85 | 1010.4 |
| 20260506030549 | 53 | 144 | 0.0 | 0.0 | 0.00 | 0.10 | 0.10 | 84 | 1010.4 |
| 20260506030046 | 53 | 176 | 0.0 | 1.0 | 0.00 | 0.10 | 0.10 | 84 | 1010.5 |
| 20260506025542 | 54 | 175 | 1.0 | 1.0 | 0.00 | 0.10 | 0.10 | 84 | 1010.3 |
| 20260506025038 | 54 | 132 | 1.0 | 1.0 | 0.00 | 0.10 | 0.10 | 84 | 1010.4 |
| 20260506024536 | 54 | 152 | 1.0 | 1.0 | 0.00 | 0.10 | 0.10 | 84 | 1010.4 |
| 20260506024032 | 54 | 233 | 2.0 | 3.0 | 0.00 | 0.10 | 0.10 | 84 | 1010.4 |
| 20260506023528 | 54 | 202 | 2.0 | 2.0 | 0.00 | 0.10 | 0.10 | 84 | 1010.6 |
| 20260506023026 | 54 | 214 | 1.0 | 2.0 | 0.00 | 0.10 | 0.10 | 84 | 1010.8 |
| 20260506022523 | 54 | 254 | 1.0 | 2.0 | 0.00 | 0.10 | 0.10 | 84 | 1010.6 |
| 20260506022021 | 54 | 344 | 2.0 | 2.0 | 0.00 | 0.10 | 0.10 | 85 | 1010.5 |
| 20260506021518 | 54 | 160 | 0.0 | 1.0 | 0.00 | 0.10 | 0.10 | 84 | 1010.7 |
| 20260506021015 | 55 | 193 | 1.0 | 1.0 | 0.00 | 0.10 | 0.10 | 84 | 1010.9 |
| 20260506020513 | 55 | 182 | 0.0 | 0.0 | 0.00 | 0.10 | 0.10 | 84 | 1010.6 |
| 20260506020010 | 55 | 106 | 1.0 | 2.0 | 0.00 | 0.10 | 0.10 | 84 | 1010.4 |
| 20260506015507 | 55 | 131 | 1.0 | 1.0 | 0.00 | 0.10 | 0.10 | 83 | 1010.4 |
| 20260506015004 | 55 | 183 | 1.0 | 1.0 | 0.00 | 0.10 | 0.10 | 83 | 1010.1 |
| 20260506014502 | 56 | 237 | 1.0 | 2.0 | 0.00 | 0.10 | 0.10 | 84 | 1010.0 |
| 20260506013957 | 56 | 252 | 2.0 | 2.0 | 0.00 | 0.10 | 0.10 | 84 | 1010.0 |
| 20260506013455 | 57 | 165 | 1.0 | 1.0 | 0.00 | 0.10 | 0.10 | 84 | 1010.0 |
| 20260506012951 | 57 | 247 | 4.0 | 6.0 | 0.00 | 0.10 | 0.10 | 84 | 1009.6 |
| 20260506012448 | 58 | 188 | 3.0 | 3.0 | 0.00 | 0.10 | 0.10 | 84 | 1009.5 |
| 20260506011945 | 58 | 242 | 4.0 | 6.0 | 0.00 | 0.10 | 0.10 | 84 | 1009.4 |
| 20260506011442 | 59 | 140 | 2.0 | 3.0 | 0.00 | 0.10 | 0.10 | 85 | 1009.4 |
| 20260506010939 | 60 | 246 | 3.0 | 3.0 | 0.00 | 0.10 | 0.10 | 86 | 1009.0 |
| 20260506010438 | 60 | 348 | 3.0 | 3.0 | 0.00 | 0.10 | 0.10 | 85 | 1008.9 |
| 20260506005934 | 60 | 213 | 1.0 | 1.0 | 0.00 | 0.10 | 0.10 | 85 | 1009.0 |
| 20260506005432 | 60 | 174 | 1.0 | 1.0 | 0.00 | 0.10 | 0.10 | 85 | 1008.6 |
| 20260506004926 | 60 | 234 | 3.0 | 3.0 | 0.00 | 0.10 | 0.10 | 85 | 1008.7 |
| 20260506004425 | 60 | 147 | 1.0 | 1.0 | 0.00 | 0.10 | 0.10 | 85 | 1008.7 |
| 20260506003920 | 60 | 183 | 1.0 | 2.0 | 0.00 | 0.10 | 0.10 | 85 | 1008.5 |
| 20260506003417 | 60 | 185 | 1.0 | 1.0 | 0.00 | 0.10 | 0.10 | 86 | 1008.6 |
| 20260506002914 | 60 | 124 | 1.0 | 1.0 | 0.00 | 0.10 | 0.10 | 86 | 1008.5 |
| 20260506002410 | 61 | 175 | 1.0 | 1.0 | 0.00 | 0.10 | 0.10 | 86 | 1008.6 |
| 20260506001905 | 61 | 214 | 1.0 | 1.0 | 0.00 | 0.10 | 0.10 | 86 | 1008.4 |
| 20260506001403 | 61 | 206 | 0.0 | 1.0 | 0.00 | 0.10 | 0.10 | 87 | 1008.4 |
| 20260506000900 | 61 | 207 | 0.0 | 1.0 | 0.00 | 0.10 | 0.10 | 86 | 1008.0 |
| 20260506000358 | 61 | 338 | 4.0 | 5.0 | 0.00 | 0.10 | 0.10 | 86 | 1008.2 |
| 20260505235854 | 62 | 173 | 2.0 | 2.0 | 0.00 | 0.10 | 0.10 | 85 | 1007.8 |
| 20260505235352 | 62 | 181 | 1.0 | 1.0 | 0.00 | 0.10 | 0.10 | 85 | 1007.9 |
| 20260505234848 | 62 | 176 | 1.0 | 1.0 | 0.00 | 0.10 | 0.10 | 85 | 1007.5 |
| 20260505234346 | 62 | 176 | 0.0 | 0.0 | 0.00 | 0.10 | 0.10 | 85 | 1007.8 |
| 20260505233843 | 62 | 176 | 0.0 | 1.0 | 0.00 | 0.10 | 0.10 | 85 | 1007.6 |
| 20260505233341 | 62 | 191 | 0.0 | 0.0 | 0.00 | 0.10 | 0.10 | 85 | 1007.8 |
| 20260505232838 | 62 | 191 | 1.0 | 1.0 | 0.00 | 0.10 | 0.10 | 85 | 1007.7 |
| 20260505232336 | 63 | 190 | 0.0 | 0.0 | 0.00 | 0.10 | 0.10 | 84 | 1007.8 |
| 20260505231832 | 63 | 194 | 0.0 | 0.0 | 0.00 | 0.10 | 0.10 | 84 | 1007.8 |
| 20260505231330 | 63 | 194 | 0.0 | 1.0 | 0.07 | 0.10 | 0.10 | 83 | 1007.6 |
| 20260505230828 | 63 | 191 | 0.0 | 1.0 | 0.07 | 0.10 | 0.10 | 83 | 1007.6 |
| 20260505230325 | 63 | 191 | 0.0 | 0.0 | 0.00 | 0.09 | 0.09 | 82 | 1007.3 |
| 20260505225821 | 64 | 155 | 1.0 | 1.0 | 0.00 | 0.09 | 0.09 | 81 | 1007.4 |
| 20260505225319 | 64 | 205 | 2.0 | 2.0 | 0.00 | 0.09 | 0.09 | 80 | 1007.6 |
| 20260505224814 | 64 | 173 | 1.0 | 2.0 | 0.00 | 0.09 | 0.09 | 80 | 1007.8 |
| 20260505224312 | 64 | 163 | 2.0 | 5.0 | 0.00 | 0.09 | 0.09 | 80 | 1008.0 |
| 20260505223808 | 64 | 161 | 0.0 | 0.0 | 0.05 | 0.09 | 0.09 | 81 | 1007.9 |
| 20260505223306 | 65 | 160 | 0.0 | 0.0 | 0.05 | 0.09 | 0.09 | 81 | 1007.9 |
| 20260505222801 | 65 | 160 | 0.0 | 0.0 | 0.00 | 0.08 | 0.08 | 79 | 1007.5 |
| 20260505222257 | 65 | 160 | 0.0 | 1.0 | 0.00 | 0.08 | 0.08 | 78 | 1007.5 |
| 20260505221755 | 66 | 160 | 1.0 | 1.0 | 0.00 | 0.08 | 0.08 | 78 | 1007.3 |
| 20260505221251 | 65 | 134 | 2.0 | 2.0 | 0.00 | 0.08 | 0.08 | 77 | 1006.8 |
| 20260505220748 | 66 | 160 | 0.0 | 0.0 | 0.00 | 0.08 | 0.08 | 77 | 1007.4 |
| 20260505220245 | 66 | 160 | 0.0 | 0.0 | 0.00 | 0.08 | 0.08 | 77 | 1006.8 |
| 20260505215744 | 66 | 160 | 1.0 | 2.0 | 0.00 | 0.08 | 0.08 | 77 | 1006.9 |
| 20260505215241 | 66 | 160 | 0.0 | 0.0 | 0.00 | 0.08 | 0.08 | 76 | 1007.2 |
| 20260505214739 | 66 | 160 | 0.0 | 0.0 | 0.00 | 0.08 | 0.08 | 77 | 1006.9 |
| 20260505214236 | 66 | 160 | 0.0 | 1.0 | 0.00 | 0.08 | 0.08 | 77 | 1006.8 |
| 20260505213733 | 65 | 161 | 1.0 | 1.0 | 0.00 | 0.08 | 0.08 | 76 | 1006.8 |
| 20260505213230 | 65 | 146 | 1.0 | 1.0 | 0.00 | 0.08 | 0.08 | 79 | 1006.7 |
| 20260505212726 | 64 | 133 | 1.0 | 1.0 | 0.00 | 0.08 | 0.08 | 81 | 1006.4 |
| 20260505212224 | 63 | 145 | 0.0 | 1.0 | 0.00 | 0.08 | 0.08 | 82 | 1006.4 |
| 20260505211721 | 62 | 131 | 4.0 | 5.0 | 0.00 | 0.08 | 0.08 | 83 | 1006.8 |
| 20260505211218 | 61 | 134 | 3.0 | 3.0 | 0.00 | 0.08 | 0.08 | 85 | 1006.7 |
| 20260505210714 | 62 | 164 | 1.0 | 2.0 | 0.00 | 0.08 | 0.08 | 88 | 1006.7 |
| 20260505210211 | 61 | 135 | 3.0 | 3.0 | 0.00 | 0.08 | 0.08 | 88 | 1006.4 |
| 20260505205708 | 61 | 163 | 3.0 | 3.0 | 0.00 | 0.08 | 0.08 | 88 | 1006.7 |
| 20260505205207 | 61 | 157 | 1.0 | 1.0 | 0.00 | 0.08 | 0.08 | 89 | 1006.6 |
| 20260505204703 | 61 | 155 | 1.0 | 1.0 | 0.00 | 0.08 | 0.08 | 89 | 1006.7 |
| 20260505204200 | 60 | 155 | 1.0 | 1.0 | 0.00 | 0.08 | 0.08 | 89 | 1006.8 |
| 20260505203652 | 60 | 155 | 1.0 | 1.0 | 0.00 | 0.08 | 0.08 | 88 | 1006.9 |
| 20260505203148 | 60 | 138 | 0.0 | 0.0 | 0.00 | 0.08 | 0.08 | 88 | 1007.0 |
| 20260505202644 | 60 | 291 | 4.0 | 5.0 | 0.00 | 0.08 | 0.08 | 88 | 1007.1 |
| 20260505202141 | 60 | 18 | 2.0 | 2.0 | 0.00 | 0.08 | 0.08 | 87 | 1007.3 |
| 20260505201637 | 60 | 318 | 3.0 | 3.0 | 0.00 | 0.08 | 0.08 | 87 | 1007.6 |
| 20260505201135 | 60 | 328 | 4.0 | 6.0 | 0.07 | 0.08 | 0.08 | 87 | 1007.7 |
| 20260505200633 | 60 | 273 | 6.0 | 9.0 | 0.19 | 0.08 | 0.08 | 86 | 1007.9 |
| 20260505200130 | 61 | 259 | 5.0 | 7.0 | 0.19 | 0.07 | 0.07 | 85 | 1008.1 |
| 20260505195626 | 61 | 267 | 7.0 | 11.0 | 0.07 | 0.05 | 0.05 | 84 | 1008.6 |
| 20260505195123 | 61 | 187 | 8.0 | 10.0 | 0.05 | 0.04 | 0.04 | 83 | 1008.3 |
| 20260505194620 | 62 | 314 | 13.0 | 16.0 | 0.17 | 0.04 | 0.04 | 82 | 1008.1 |
| 20260505194116 | 64 | 296 | 6.0 | 8.0 | 0.12 | 0.03 | 0.03 | 77 | 1007.6 |
| 20260505193613 | 70 | 256 | 9.0 | 13.0 | 0.00 | 0.01 | 0.01 | 62 | 1007.0 |
| 20260505193110 | 73 | 240 | 5.0 | 6.0 | 0.00 | 0.01 | 0.01 | 50 | 1006.1 |
| 20260505192609 | 74 | 226 | 4.0 | 6.0 | 0.00 | 0.01 | 0.01 | 45 | 1005.8 |
| 20260505192106 | 75 | 234 | 4.0 | 6.0 | 0.00 | 0.01 | 0.01 | 43 | 1005.5 |
| 20260505191604 | 75 | 190 | 1.0 | 2.0 | 0.00 | 0.01 | 0.01 | 45 | 1005.5 |